[[{"header":{"parameterUnit":"m.s-1","parameterCategory":1,"la1":30.2992,"la2":30.254,"lo1":-89.0895,"lo2":-89.0443,"dy":0.0025,"dx":0.0025,"nx":19,"ny":19,"refTime":"2026-03-27T09:00:00:Z","depth":0,"parameterNumber":2,"parameterNumberName":"U-component_of_WINDS"},"data":[0,0,0,2.4923,2.4926,2.508,2.508,2.5275,2.5277,0,0,0,0,0,0,0,0,0,0,0,2.4873,2.4874,2.4923,2.4926,2.508,2.508,2.5275,2.5277,0,0,0,0,0,0,0,0,0,0,0,2.4872,2.4874,2.4875,2.4927,2.508,2.5081,2.5275,2.516,0,0,0,0,0,0,0,0,0,0,2.5011,2.496,2.4873,2.4875,2.4928,2.5079,2.5081,2.5155,2.5167,2.5204,0,2.5233,0,2.5258,2.529,2.529,0,0,0,2.493,2.4949,2.4995,2.4875,2.4929,2.5079,2.5012,2.5162,2.5176,2.5221,2.5236,2.5243,2.5261,2.5291,2.5292,2.5488,2.5488,0,0,2.4922,2.4899,2.4985,2.5004,2.4977,2.5007,2.5016,2.517,2.5186,2.5236,2.5248,2.5264,2.5292,2.5294,2.5487,2.5488,0,0,0,2.4895,2.4892,2.4934,2.4996,2.5023,2.5011,2.5022,2.5179,2.5195,2.525,2.5267,2.5293,2.5296,2.5486,2.5487,2.5501,0,0,0,2.489,2.4877,2.493,2.4918,2.502,2.5102,2.5027,2.5184,2.5202,2.5266,2.5293,2.5297,2.5485,2.5487,2.5499,2.5511,0,0,0,2.4864,2.4874,2.4894,2.4916,2.4981,2.51,2.5125,2.5188,2.5212,2.5291,2.5298,2.5485,2.5487,2.5497,2.5508,2.5557,0,0,0,2.4831,2.4904,2.4894,2.4983,2.498,2.5107,2.5124,2.5221,2.5289,2.5294,2.5486,2.5487,2.5496,2.5506,2.5555,2.5593,2.5607,0,0,2.491,2.4912,2.4967,2.4963,2.5085,2.5086,2.5213,2.5298,2.5327,2.5434,2.5439,2.55,2.5508,2.5556,2.5693,2.5704,0,0,0,2.4984,2.5022,2.506,2.5124,2.5191,2.525,2.5319,2.5351,2.5443,2.5376,2.5531,2.5537,2.5567,2.5586,2.5595,2.5623,2.5495,2.5495,2.5495,2.5061,2.5095,2.5188,2.5242,2.5304,2.5376,2.5431,2.5488,2.5503,2.554,2.5571,2.565,2.5672,2.5679,2.5707,2.5595,2.5595,2.5595,2.5595,2.518,2.5241,2.5263,2.536,2.5397,2.5481,2.5555,2.5564,2.565,2.5628,2.5656,2.5628,2.5689,2.5716,2.5596,2.5596,2.5596,2.5596,2.5596,2.5234,2.5269,2.5308,2.5406,2.548,2.5533,2.5615,2.5646,2.5677,2.5705,2.5743,2.5742,2.5747,2.5721,2.5721,2.5721,2.5721,2.5722,2.5722,2.5275,2.5318,2.5381,2.5461,2.5508,2.5575,2.5652,2.57,2.5763,2.578,2.578,2.5794,2.5689,2.5661,2.5726,2.5725,2.5725,2.5724,2.5724,2.5381,2.5363,2.546,2.5508,2.5607,2.568,2.572,2.5818,2.5863,2.5903,2.5913,2.583,2.5835,2.5828,2.5805,2.5904,2.5904,2.5904,2.5904,2.5427,2.5433,2.5541,2.5616,2.5693,2.5741,2.5855,2.5918,2.598,2.6011,2.6003,2.5976,2.5968,2.5978,2.5968,2.5947,2.608,2.608,2.608,2.5495,2.5511,2.5599,2.5657,2.5739,2.5809,2.5918,2.6007,2.6074,2.6088,2.6037,2.603,2.5988,2.5972,2.5981,2.5964,2.5928,0,0]},{"header":{"parameterUnit":"m.s-1","parameterCategory":1,"la1":30.2992,"la2":30.254,"lo1":-89.0895,"lo2":-89.0443,"dy":0.0025,"dx":0.0025,"nx":19,"ny":19,"refTime":"2026-03-27T09:00:00:Z","depth":0,"parameterNumber":3,"parameterNumberName":"V-component_of_WINDS"},"data":[0,0,0,-1.7384,-1.7384,-1.7425,-1.7426,-1.7446,-1.7446,0,0,0,0,0,0,0,0,0,0,0,-1.7354,-1.7354,-1.7384,-1.7384,-1.7425,-1.7426,-1.7446,-1.7446,0,0,0,0,0,0,0,0,0,0,0,-1.7354,-1.7354,-1.7353,-1.7384,-1.7425,-1.7426,-1.7446,-1.7426,0,0,0,0,0,0,0,0,0,0,-1.7391,-1.7348,-1.7354,-1.7353,-1.7384,-1.7425,-1.7426,-1.7426,-1.7427,-1.7414,0,-1.74,0,-1.7423,-1.7445,-1.7445,0,0,0,-1.7397,-1.7346,-1.7373,-1.7353,-1.7385,-1.7425,-1.741,-1.7427,-1.7429,-1.7416,-1.74,-1.7402,-1.7423,-1.7445,-1.7445,-1.7331,-1.733,0,0,-1.7395,-1.7352,-1.7372,-1.7373,-1.7367,-1.7409,-1.7411,-1.7428,-1.7408,-1.7401,-1.7403,-1.7424,-1.7445,-1.7445,-1.7332,-1.7331,0,0,0,-1.738,-1.7349,-1.7377,-1.7372,-1.7382,-1.741,-1.7413,-1.7407,-1.742,-1.7403,-1.7424,-1.7445,-1.7445,-1.7333,-1.7331,-1.7232,0,0,0,-1.7379,-1.7341,-1.7375,-1.7349,-1.7381,-1.7395,-1.739,-1.7418,-1.7422,-1.7424,-1.7445,-1.7445,-1.7335,-1.7332,-1.7238,-1.7191,0,0,0,-1.7357,-1.7339,-1.7339,-1.7347,-1.7363,-1.7396,-1.741,-1.742,-1.7433,-1.7445,-1.7445,-1.7336,-1.7333,-1.7242,-1.7199,-1.7145,0,0,0,-1.7322,-1.7251,-1.7336,-1.7266,-1.7363,-1.7336,-1.741,-1.7393,-1.7391,-1.7445,-1.7334,-1.7332,-1.7244,-1.7204,-1.715,-1.709,-1.7062,0,0,-1.7208,-1.7236,-1.7197,-1.7275,-1.7222,-1.7333,-1.7265,-1.7304,-1.7344,-1.7332,-1.733,-1.7236,-1.72,-1.7146,-1.6925,-1.6902,0,0,0,-1.7147,-1.7118,-1.7113,-1.711,-1.714,-1.7159,-1.7214,-1.7228,-1.722,-1.733,-1.7205,-1.7185,-1.7156,-1.7128,-1.7109,-1.7084,-1.7318,-1.7319,-1.7319,-1.6922,-1.6978,-1.6917,-1.6977,-1.6973,-1.703,-1.7031,-1.7059,-1.7118,-1.7087,-1.7082,-1.6941,-1.6908,-1.6894,-1.6867,-1.7058,-1.7058,-1.7058,-1.7057,-1.6758,-1.6724,-1.6803,-1.6771,-1.683,-1.6804,-1.6855,-1.6896,-1.6878,-1.695,-1.6927,-1.6996,-1.6867,-1.6847,-1.7051,-1.7052,-1.7053,-1.7053,-1.7054,-1.6613,-1.6607,-1.6627,-1.6627,-1.662,-1.6684,-1.6663,-1.6718,-1.677,-1.6747,-1.6746,-1.6748,-1.6752,-1.6744,-1.6743,-1.6743,-1.6742,-1.6742,-1.6742,-1.6454,-1.648,-1.6456,-1.648,-1.6484,-1.6496,-1.6552,-1.6557,-1.6577,-1.6618,-1.6618,-1.6675,-1.6846,-1.6885,-1.6734,-1.6735,-1.6736,-1.6737,-1.6738,-1.6259,-1.6312,-1.6275,-1.6279,-1.631,-1.6298,-1.637,-1.6375,-1.6387,-1.6374,-1.6438,-1.6556,-1.6588,-1.6603,-1.6635,-1.6429,-1.6429,-1.6429,-1.6429,-1.6134,-1.6157,-1.6129,-1.6131,-1.6141,-1.6201,-1.6153,-1.6195,-1.6247,-1.6257,-1.6296,-1.6345,-1.6359,-1.6382,-1.6402,-1.6433,-1.618,-1.618,-1.6179,-1.6015,-1.6041,-1.599,-1.6043,-1.6071,-1.6094,-1.6049,-1.6046,-1.6116,-1.617,-1.6265,-1.6276,-1.6356,-1.638,-1.6431,-1.6462,-1.652,0,0]}]]